Flag for Austria

Past Weather in Völkermarkt, Carinthia, Austria — Yesterday and Last 2 Weeks

Now
56 °F

Low clouds.


Feels Like: 56 °F
Forecast: 70 / 56 °F
Wind: 2 mph from North

Location: Klagenfurt-Flughafen
Current Time: Sep 22, 2020 at 7:19:53 am
Latest Report: Sep 22, 2020 at 6:00 am
Visibility: 4 mi
Pressure30.04 "Hg
Humidity: 97%
Dew Point: 55 °F
Location of VölkermarktLocation

Past Weather in Völkermarkt — Graph

°F

Völkermarkt Temperature Yesterday

Maximum temperature yesterday: 71 °F (at 6:00 pm)
Minimum temperature yesterday: 49 °F (at 7:00 am)
Average temperature yesterday: 59 °F

High & Low Weather Summary for the Past Weeks

 TemperatureHumidityPressure
High79 °F (Sep 13, 5:00 pm)99% (Sep 10, 6:00 am)30.43 "Hg (Sep 10, 6:00 am)
Low47 °F (Sep 20, 5:00 am)43% (Sep 10, 4:00 pm)29.95 "Hg (Sep 11, 5:00 pm)
Average63 °F79%30.18 "Hg
* Reported Sep 7 6:00 am — Sep 22 5:00 am, Völkermarkt. Weather by CustomWeather, © 2020

Note: Actual official high and low records may vary slightly from our data, if they occured in-between our weather recording intervals... More about our weather records

Völkermarkt Weather History for the Previous 24 Hours

Scroll right to see more
 ConditionsComfort  
Time TempWeatherWind HumidityBarometerVisibility
5:00 am
Tue, Sep 22
56 °FLow clouds.2 mph98%30.04 "Hg3 mi
4:00 am56 °FLight rain. Low clouds.2 mph97%30.04 "Hg0 mi
3:00 am56 °FPassing clouds.3 mph97%30.04 "Hg2 mi
2:00 am57 °FCool.1 mph95%30.05 "Hg4 mi
1:00 am58 °FPassing clouds.1 mph95%30.04 "Hg4 mi
12:00 am60 °FOvercast.2 mph93%30.04 "Hg9 mi
11:00 pm
Mon, Sep 21
61 °FOvercast.1 mph92%30.04 "Hg9 mi
10:00 pm61 °FPassing clouds.1 mph88%30.03 "Hg12 mi
9:00 pm64 °FPassing clouds.1 mph84%30.01 "Hg13 mi
8:00 pm65 °FPassing clouds.1 mph80%30.00 "Hg16 mi
7:00 pm68 °FPartly sunny.1 mph75%29.98 "Hg3 mi
6:00 pm71 °FPartly sunny.1 mph60%29.97 "Hg19 mi
4:00 pm70 °FPartly sunny.1 mph59%29.99 "Hg22 mi
3:00 pm70 °FScattered clouds.2 mph61%30.00 "Hg22 mi
1:00 pm66 °FPassing clouds.1 mph64%30.04 "Hg18 mi
12:00 pm64 °FPassing clouds.1 mph65%30.05 "Hg18 mi
11:00 am60 °FScattered clouds.1 mph79%30.07 "Hg14 mi
10:00 am56 °FPartly sunny.1 mph89%30.09 "Hg7 mi
9:00 am52 °FLight rain. Low clouds.1 mph97%30.11 "Hg1 mi
8:00 am51 °FLight rain. Partly sunny.1 mph96%30.10 "Hg1 mi
7:00 am49 °FPassing clouds.1 mph96%30.10 "Hg6 mi
Weather by CustomWeather, © 2020

See weather overview